This is the latest recevied weather packets stored in our database for station/object KB2EAR-13. If no packets are shown the sender has not sent any weather packets the latest 1 day(s).
| Time | Temp. | Humidity | Pressure | Rain* | Wind** | Luminosity | Snow |
|---|---|---|---|---|---|---|---|
| 1777994617 | 25° C | 48% | 1011.9 hPa | 0 mm | 0.89 m/s, 248° | - | - |
| 1777994417 | 25° C | 48% | 1011.9 hPa | 0 mm | 0.89 m/s, 248° | - | - |
| 1777994117 | 24.44° C | 50% | 1011.8 hPa | 0 mm | 1.79 m/s, 270° | - | - |
| 1777993958 | 24.44° C | 50% | 1011.6 hPa | 0 mm | 1.34 m/s, 248° | - | - |
| 1777993817 | 24.44° C | 50% | 1011.6 hPa | 0 mm | 1.34 m/s, 248° | - | - |
| 1777993656 | 24.44° C | 49% | 1011.6 hPa | 0 mm | 1.34 m/s, 248° | - | - |
| 1777993517 | 24.44° C | 49% | 1011.6 hPa | 0 mm | 1.34 m/s, 248° | - | - |
| 1777993217 | 24.44° C | 51% | 1011.7 hPa | 0 mm | 0.45 m/s, 270° | - | - |
| 1777992917 | 23.89° C | 51% | 1011.6 hPa | 0 mm | 0.89 m/s, 248° | - | - |
| 1777992617 | 23.89° C | 52% | 1011.8 hPa | 0 mm | 1.34 m/s, 248° | - | - |
| 1777992317 | 23.33° C | 51% | 1011.7 hPa | 0 mm | 0.89 m/s, 248° | - | - |
| 1777992017 | 23.33° C | 52% | 1011.9 hPa | 0 mm | 0.89 m/s, 270° | - | - |
| 1777991717 | 22.78° C | 53% | 1012.1 hPa | 0 mm | 1.34 m/s, 270° | - | - |
| 1777991417 | 22.78° C | 54% | 1012.3 hPa | 0 mm | 1.34 m/s, 248° | - | - |
| 1777991117 | 22.78° C | 53% | 1012.4 hPa | 0 mm | 1.79 m/s, 248° | - | - |
| 1777990817 | 22.78° C | 54% | 1012.3 hPa | 0 mm | 1.79 m/s, 248° | - | - |
| 1777990517 | 22.78° C | 55% | 1012.3 hPa | 0 mm | 1.34 m/s, 270° | - | - |
| 1777990217 | 22.22° C | 54% | 1012.3 hPa | 0 mm | 1.34 m/s, 248° | - | - |
| 1777989917 | 22.22° C | 55% | 1012.3 hPa | 0 mm | 0.89 m/s, 270° | - | - |
| 1777989617 | 21.67° C | 57% | 1012.2 hPa | 0 mm | 1.34 m/s, 248° | - | - |
| 1777989317 | 21.67° C | 57% | 1012.3 hPa | 0 mm | 1.34 m/s, 270° | - | - |
| 1777989134 | 21.67° C | 57% | 1012.3 hPa | 0 mm | 1.34 m/s, 270° | - | - |
| 1777989017 | 21.67° C | 57% | 1012.3 hPa | 0 mm | 1.34 m/s, 270° | - | - |
| 1777988717 | 21.11° C | 61% | 1012.3 hPa | 0 mm | 0.45 m/s, 248° | - | - |
| 1777988417 | 20.56° C | 61% | 1012.3 hPa | 0 mm | 1.34 m/s, 270° | - | - |
* Rain latest hour (hover to see other rain measurements)
** Current wind speed in m/s (hover to see current wind gust speed)